QPF
0.05 0.06 0.05 0.04 0.04 0.04 0.06 0.06 0.08 0.09 0.10 0.08 0.06 0.04 0.04 0.03 0.02 0.02 0.02 0.01 0.01 0.01 0.02 0.03 0.03 0.02 0.03 0.04 0.04 0.04 0.05 0.05 0.05 0.06 0.06 0.06 0.07 0.07
0.06 0.08 0.07 0.05 0.07 0.08 0.08 0.08 0.08 0.09 0.08 0.06 0.05 0.04 0.05 0.03 0.03 0.03 0.02 0.01 0.02 0.02 0.01 0.02 0.02 0.03 0.02 0.02 0.02 0.02 0.02 0.01 0.02 0.04 0.06 0.06 0.06 0.05
0.08 0.08 0.08 0.09 0.11 0.11 0.10 0.09 0.07 0.06 0.06 0.04 0.04 0.05 0.06 0.05 0.05 0.05 0.04 0.04 0.02 0.02 0.02 0.01 0.01 0.02 0.02 0.02 0.02 0.02 0.01 0.00 0.00 0.01 0.02 0.02 0.02 0.02
0.09 0.10 0.10 0.09 0.08 0.07 0.07 0.06 0.06 0.06 0.06 0.05 0.05 0.05 0.06 0.06 0.05 0.04 0.03 0.03 0.03 0.02 0.02 0.01 0.01 0.01 0.02 0.02 0.02 0.02 0.02 0.01 0.00 0.00 0.00 0.01 0.01 0.01
0.12 0.11 0.07 0.06 0.07 0.07 0.06 0.06 0.05 0.04 0.05 0.05 0.07 0.08 0.07 0.06 0.06 0.04 0.03 0.03 0.02 0.01 0.01 0.01 0.01 0.01 0.02 0.02 0.02 0.02 0.02 0.01 0.01 0.00 0.00 0.00 0.00 0.00
0.09 0.07 0.05 0.05 0.06 0.07 0.06 0.07 0.06 0.05 0.05 0.05 0.05 0.05 0.05 0.04 0.05 0.05 0.04 0.04 0.03 0.02 0.03 0.02 0.02 0.02 0.02 0.03 0.03 0.02 0.01 0.01 0.01 0.01 0.01 0.00 0.00 0.01
0.05 0.05 0.05 0.05 0.04 0.04 0.04 0.05 0.05 0.06 0.06 0.07 0.06 0.04 0.05 0.05 0.04 0.04 0.04 0.05 0.05 0.03 0.06 0.05 0.03 0.03 0.03 0.03 0.03 0.02 0.01 0.01 0.01 0.01 0.01 0.01 0.01 0.01
0.04 0.05 0.06 0.03 0.02 0.02 0.02 0.02 0.02 0.03 0.04 0.06 0.06 0.05 0.05 0.04 0.04 0.04 0.04 0.05 0.04 0.03 0.05 0.05 0.05 0.05 0.04 0.04 0.04 0.04 0.02 0.01 0.01 0.01 0.01 0.02 0.02 0.01
0.03 0.05 0.04 0.02 0.02 0.01 0.01 0.01 0.01 0.01 0.02 0.03 0.05 0.05 0.04 0.04 0.04 0.04 0.05 0.05 0.05 0.05 0.06 0.04 0.05 0.05 0.04 0.04 0.05 0.04 0.03 0.02 0.01 0.01 0.01 0.01 0.01 0.02
0.03 0.03 0.03 0.02 0.02 0.02 0.02 0.02 0.02 0.02 0.01 0.02 0.03 0.04 0.03 0.02 0.03 0.04 0.05 0.05 0.04 0.05 0.05 0.05 0.05 0.05 0.04 0.03 0.03 0.02 0.02 0.02 0.02 0.01 0.01 0.01 0.01 0.01
0.04 0.03 0.02 0.02 0.02 0.02 0.03 0.03 0.02 0.02 0.02 0.01 0.01 0.02 0.02 0.01 0.01 0.02 0.04 0.05 0.04 0.03 0.04 0.04 0.04 0.05 0.04 0.03 0.03 0.04 0.04 0.03 0.03 0.03 0.02 0.02 0.01 0.01
0.05 0.04 0.03 0.03 0.03 0.03 0.04 0.05 0.04 0.04 0.03 0.03 0.02 0.02 0.02 0.02 0.02 0.03 0.04 0.04 0.04 0.03 0.03 0.05 0.05 0.06 0.05 0.04 0.04 0.05 0.05 0.05 0.04 0.04 0.04 0.04 0.03 0.02
0.04 0.04 0.04 0.03 0.02 0.02 0.03 0.05 0.04 0.05 0.06 0.05 0.04 0.04 0.05 0.04 0.04 0.04 0.05 0.06 0.06 0.04 0.04 0.05 0.05 0.06 0.07 0.06 0.05 0.06 0.06 0.04 0.04 0.05 0.05 0.04 0.04 0.03
0.02 0.03 0.03 0.02 0.02 0.01 0.01 0.02 0.02 0.03 0.04 0.05 0.05 0.05 0.05 0.04 0.04 0.04 0.05 0.06 0.06 0.05 0.04 0.04 0.04 0.05 0.06 0.06 0.06 0.06 0.08 0.06 0.05 0.06 0.06 0.05 0.04 0.04
0.02 0.02 0.02 0.02 0.02 0.01 0.01 0.01 0.01 0.02 0.03 0.04 0.05 0.03 0.03 0.04 0.04 0.04 0.05 0.05 0.05 0.03 0.02 0.02 0.03 0.04 0.05 0.05 0.05 0.04 0.05 0.06 0.06 0.06 0.07 0.06 0.05 0.04
0.02 0.02 0.02 0.02 0.02 0.01 0.01 0.01 0.01 0.02 0.02 0.03 0.04 0.04 0.03 0.03 0.03 0.03 0.04 0.05 0.05 0.03 0.02 0.02 0.03 0.04 0.03 0.03 0.03 0.03 0.04 0.04 0.04 0.05 0.06 0.06 0.05 0.04
0.02 0.03 0.02 0.02 0.02 0.02 0.02 0.02 0.02 0.02 0.02 0.03 0.03 0.03 0.04 0.04 0.03 0.03 0.04 0.05 0.04 0.03 0.03 0.02 0.02 0.03 0.03 0.03 0.03 0.03 0.03 0.03 0.03 0.04 0.05 0.04 0.03 0.03
0.01 0.03 0.04 0.04 0.03 0.03 0.04 0.03 0.02 0.02 0.02 0.03 0.03 0.03 0.04 0.05 0.05 0.04 0.04 0.06 0.05 0.03 0.02 0.02 0.02 0.03 0.04 0.03 0.03 0.03 0.03 0.03 0.03 0.04 0.04 0.04 0.03 0.02
0.02 0.02 0.03 0.04 0.03 0.03 0.03 0.03 0.03 0.02 0.01 0.02 0.02 0.03 0.03 0.03 0.04 0.03 0.03 0.04 0.05 0.04 0.03 0.03 0.03 0.04 0.05 0.04 0.02 0.02 0.03 0.03 0.03 0.04 0.04 0.04 0.04 0.03
0.02 0.03 0.03 0.03 0.03 0.03 0.03 0.03 0.03 0.03 0.03 0.02 0.03 0.04 0.03 0.03 0.04 0.04 0.03 0.04 0.05 0.04 0.04 0.04 0.03 0.04 0.04 0.05 0.04 0.02 0.03 0.03 0.04 0.04 0.03 0.03 0.03 0.04
0.02 0.02 0.03 0.03 0.02 0.03 0.03 0.03 0.03 0.03 0.03 0.03 0.03 0.04 0.04 0.03 0.03 0.03 0.03 0.04 0.04 0.04 0.04 0.04 0.04 0.04 0.05 0.05 0.05 0.03 0.03 0.03 0.03 0.03 0.03 0.03 0.03 0.04
0.01 0.01 0.02 0.02 0.02 0.02 0.01 0.02 0.02 0.02 0.02 0.03 0.03 0.03 0.03 0.03 0.03 0.03 0.03 0.03 0.03 0.03 0.03 0.02 0.02 0.03 0.04 0.06 0.06 0.04 0.03 0.03 0.03 0.03 0.03 0.03 0.03 0.04
0.01 0.01 0.02 0.02 0.02 0.02 0.01 0.01 0.02 0.01 0.01 0.02 0.02 0.02 0.03 0.03 0.03 0.02 0.02 0.03 0.03 0.02 0.02 0.02 0.02 0.03 0.03 0.05 0.06 0.04 0.03 0.03 0.03 0.02 0.02 0.02 0.01 0.02
MSLP
1010.47 1011.11 1011.76 1012.39 1012.96 1013.47 1013.89 1014.24 1014.52 1014.77 1014.99 1015.23 1015.51 1015.83 1016.21 1016.64 1017.11 1017.60 1018.10 1018.61 1019.09 1019.54 1019.97 1020.36 1020.73 1021.06 1021.37 1021.64 1021.90 1022.12 1022.32 1022.51 1022.67 1022.82 1022.96 1023.08 1023.17 1023.24
1009.64 1010.28 1010.93 1011.56 1012.14 1012.66 1013.12 1013.50 1013.83 1014.13 1014.41 1014.70 1015.01 1015.37 1015.76 1016.19 1016.66 1017.14 1017.64 1018.13 1018.61 1019.07 1019.51 1019.93 1020.33 1020.71 1021.06 1021.38 1021.69 1021.96 1022.22 1022.44 1022.65 1022.83 1023.00 1023.14 1023.26 1023.34
1008.78 1009.41 1010.06 1010.69 1011.28 1011.83 1012.33 1012.77 1013.16 1013.53 1013.88 1014.23 1014.60 1014.99 1015.41 1015.85 1016.31 1016.78 1017.26 1017.73 1018.20 1018.66 1019.11 1019.54 1019.96 1020.36 1020.74 1021.10 1021.44 1021.75 1022.03 1022.30 1022.53 1022.75 1022.94 1023.11 1023.24 1023.34
1007.89 1008.50 1009.14 1009.77 1010.39 1010.97 1011.52 1012.02 1012.50 1012.95 1013.39 1013.82 1014.24 1014.67 1015.11 1015.56 1016.01 1016.47 1016.93 1017.38 1017.84 1018.28 1018.72 1019.16 1019.58 1019.99 1020.38 1020.75 1021.10 1021.43 1021.73 1022.02 1022.28 1022.52 1022.74 1022.93 1023.09 1023.22
1006.98 1007.58 1008.20 1008.83 1009.46 1010.08 1010.69 1011.27 1011.83 1012.37 1012.89 1013.40 1013.89 1014.36 1014.83 1015.28 1015.72 1016.16 1016.60 1017.03 1017.46 1017.89 1018.31 1018.73 1019.14 1019.54 1019.93 1020.29 1020.64 1020.97 1021.27 1021.57 1021.84 1022.11 1022.35 1022.58 1022.78 1022.94
1006.13 1006.69 1007.29 1007.91 1008.55 1009.20 1009.85 1010.50 1011.14 1011.77 1012.38 1012.95 1013.50 1014.01 1014.49 1014.95 1015.38 1015.80 1016.21 1016.61 1017.02 1017.42 1017.83 1018.22 1018.62 1018.99 1019.36 1019.70 1020.03 1020.34 1020.65 1020.94 1021.24 1021.52 1021.80 1022.07 1022.32 1022.53
1005.39 1005.91 1006.48 1007.07 1007.70 1008.37 1009.05 1009.75 1010.46 1011.15 1011.82 1012.45 1013.04 1013.58 1014.08 1014.53 1014.95 1015.35 1015.74 1016.12 1016.50 1016.88 1017.26 1017.63 1017.99 1018.34 1018.68 1019.00 1019.30 1019.60 1019.89 1020.19 1020.50 1020.82 1021.14 1021.45 1021.75 1022.02
1004.82 1005.29 1005.81 1006.37 1006.98 1007.63 1008.33 1009.06 1009.80 1010.54 1011.25 1011.92 1012.53 1013.09 1013.59 1014.04 1014.45 1014.83 1015.19 1015.55 1015.91 1016.26 1016.62 1016.97 1017.30 1017.62 1017.93 1018.22 1018.50 1018.78 1019.08 1019.38 1019.71 1020.06 1020.42 1020.78 1021.14 1021.46
1004.42 1004.85 1005.32 1005.83 1006.41 1007.04 1007.73 1008.46 1009.21 1009.96 1010.69 1011.38 1012.00 1012.56 1013.06 1013.50 1013.90 1014.26 1014.62 1014.96 1015.30 1015.63 1015.97 1016.29 1016.60 1016.90 1017.18 1017.45 1017.71 1017.98 1018.28 1018.60 1018.95 1019.33 1019.73 1020.14 1020.53 1020.90
1004.17 1004.56 1004.98 1005.46 1005.99 1006.59 1007.25 1007.97 1008.71 1009.45 1010.18 1010.86 1011.49 1012.04 1012.54 1012.97 1013.36 1013.72 1014.06 1014.39 1014.72 1015.05 1015.37 1015.67 1015.96 1016.23 1016.49 1016.75 1017.00 1017.28 1017.58 1017.91 1018.29 1018.69 1019.12 1019.56 1019.99 1020.38
1003.96 1004.34 1004.74 1005.18 1005.68 1006.25 1006.88 1007.57 1008.28 1009.01 1009.72 1010.39 1011.00 1011.55 1012.04 1012.48 1012.87 1013.23 1013.57 1013.91 1014.23 1014.55 1014.85 1015.14 1015.42 1015.68 1015.92 1016.17 1016.42 1016.69 1017.00 1017.35 1017.74 1018.16 1018.61 1019.06 1019.49 1019.89
1003.70 1004.08 1004.48 1004.91 1005.40 1005.94 1006.55 1007.21 1007.89 1008.59 1009.27 1009.92 1010.53 1011.07 1011.57 1012.01 1012.42 1012.79 1013.15 1013.49 1013.82 1014.14 1014.44 1014.72 1014.98 1015.23 1015.46 1015.70 1015.95 1016.22 1016.54 1016.89 1017.28 1017.71 1018.15 1018.59 1019.01 1019.39
1003.32 1003.72 1004.14 1004.58 1005.06 1005.60 1006.19 1006.81 1007.47 1008.13 1008.79 1009.42 1010.01 1010.56 1011.07 1011.53 1011.96 1012.37 1012.75 1013.11 1013.45 1013.78 1014.08 1014.35 1014.61 1014.85 1015.08 1015.31 1015.55 1015.82 1016.13 1016.47 1016.85 1017.26 1017.68 1018.09 1018.48 1018.82
1002.79 1003.23 1003.67 1004.14 1004.63 1005.17 1005.73 1006.33 1006.95 1007.58 1008.21 1008.82 1009.41 1009.97 1010.49 1010.98 1011.45 1011.89 1012.30 1012.69 1013.06 1013.40 1013.71 1013.99 1014.24 1014.48 1014.70 1014.92 1015.16 1015.42 1015.70 1016.02 1016.37 1016.74 1017.12 1017.48 1017.82 1018.12
1002.20 1002.67 1003.14 1003.63 1004.13 1004.66 1005.20 1005.77 1006.34 1006.93 1007.52 1008.11 1008.69 1009.25 1009.79 1010.32 1010.82 1011.30 1011.76 1012.19 1012.58 1012.94 1013.27 1013.56 1013.81 1014.05 1014.26 1014.48 1014.70 1014.94 1015.20 1015.49 1015.79 1016.11 1016.42 1016.73 1017.01 1017.26
1001.71 1002.19 1002.67 1003.16 1003.66 1004.16 1004.66 1005.18 1005.70 1006.23 1006.77 1007.32 1007.87 1008.42 1008.98 1009.53 1010.07 1010.59 1011.09 1011.56 1011.98 1012.37 1012.71 1013.02 1013.28 1013.52 1013.73 1013.94 1014.15 1014.37 1014.60 1014.84 1015.09 1015.35 1015.60 1015.84 1016.06 1016.26
1001.53 1001.99 1002.46 1002.92 1003.38 1003.83 1004.26 1004.70 1005.14 1005.58 1006.05 1006.54 1007.05 1007.58 1008.13 1008.69 1009.25 1009.80 1010.33 1010.83 1011.28 1011.69 1012.05 1012.37 1012.65 1012.89 1013.11 1013.32 1013.51 1013.71 1013.91 1014.11 1014.31 1014.51 1014.69 1014.86 1015.03 1015.19
1001.90 1002.30 1002.72 1003.12 1003.50 1003.86 1004.19 1004.52 1004.84 1005.18 1005.54 1005.94 1006.38 1006.85 1007.37 1007.91 1008.46 1009.02 1009.56 1010.06 1010.53 1010.96 1011.33 1011.66 1011.94 1012.20 1012.43 1012.64 1012.83 1013.02 1013.20 1013.37 1013.52 1013.66 1013.79 1013.90 1014.02 1014.14
1002.93 1003.26 1003.59 1003.90 1004.17 1004.40 1004.60 1004.78 1004.96 1005.16 1005.39 1005.67 1006.00 1006.39 1006.84 1007.33 1007.84 1008.36 1008.88 1009.37 1009.82 1010.24 1010.61 1010.94 1011.23 1011.49 1011.73 1011.95 1012.16 1012.34 1012.52 1012.67 1012.79 1012.90 1012.98 1013.06 1013.13 1013.22
1004.66 1004.89 1005.11 1005.29 1005.43 1005.52 1005.56 1005.58 1005.59 1005.63 1005.70 1005.83 1006.04 1006.31 1006.65 1007.05 1007.48 1007.93 1008.38 1008.82 1009.23 1009.61 1009.95 1010.26 1010.54 1010.81 1011.06 1011.29 1011.51 1011.72 1011.90 1012.05 1012.17 1012.26 1012.33 1012.37 1012.42 1012.49
1006.94 1007.07 1007.17 1007.23 1007.22 1007.15 1007.03 1006.88 1006.72 1006.58 1006.49 1006.46 1006.51 1006.64 1006.84 1007.11 1007.42 1007.76 1008.11 1008.45 1008.78 1009.08 1009.36 1009.63 1009.89 1010.14 1010.39 1010.64 1010.89 1011.12 1011.33 1011.51 1011.65 1011.75 1011.81 1011.86 1011.90 1011.95
1009.52 1009.56 1009.56 1009.49 1009.35 1009.13 1008.86 1008.54 1008.22 1007.91 1007.65 1007.46 1007.34 1007.31 1007.36 1007.47 1007.63 1007.82 1008.03 1008.24 1008.44 1008.64 1008.83 1009.03 1009.24 1009.46 1009.70 1009.96 1010.23 1010.50 1010.75 1010.97 1011.15 1011.28 1011.38 1011.44 1011.49 1011.54
1012.09 1012.06 1011.97 1011.79 1011.54 1011.19 1010.79 1010.34 1009.87 1009.42 1009.01 1008.66 1008.39 1008.20 1008.08 1008.02 1008.01 1008.03 1008.07 1008.12 1008.17 1008.23 1008.30 1008.40 1008.53 1008.71 1008.92 1009.18 1009.46 1009.76 1010.06 1010.34 1010.57 1010.77 1010.91 1011.01 1011.09 1011.16
Thickness
5720 5719 5718 5718 5719 5720 5719 5715 5708 5701 5700 5704 5705 5707 5707 5705 5703 5701 5700 5698 5696 5695 5693 5692 5691 5689 5687 5685 5684 5682 5681 5679 5677 5675 5674 5672 5670 5668
5717 5716 5715 5715 5715 5715 5714 5714 5713 5706 5700 5703 5704 5705 5704 5703 5700 5699 5697 5695 5693 5691 5690 5688 5687 5685 5683 5682 5680 5678 5677 5675 5674 5672 5670 5668 5666 5664
5714 5713 5711 5711 5710 5710 5711 5710 5709 5706 5699 5700 5703 5702 5700 5698 5697 5696 5694 5691 5689 5688 5687 5685 5683 5682 5680 5678 5677 5675 5674 5672 5670 5668 5666 5664 5662 5660
5710 5708 5707 5708 5707 5706 5706 5705 5704 5703 5699 5695 5696 5696 5695 5695 5694 5693 5691 5689 5687 5685 5684 5682 5680 5679 5677 5675 5674 5672 5671 5669 5667 5664 5662 5660 5658 5656
5707 5705 5704 5703 5702 5702 5701 5700 5700 5701 5698 5694 5692 5692 5691 5691 5689 5688 5688 5686 5685 5683 5681 5678 5677 5675 5673 5672 5670 5669 5668 5666 5663 5661 5658 5656 5654 5652
5704 5703 5702 5700 5698 5698 5697 5696 5696 5694 5693 5690 5688 5687 5685 5685 5684 5681 5680 5680 5680 5680 5678 5675 5673 5671 5670 5669 5667 5665 5663 5661 5659 5657 5655 5653 5650 5648
5701 5700 5699 5698 5697 5695 5694 5692 5691 5688 5686 5684 5681 5680 5678 5677 5675 5675 5673 5674 5674 5675 5673 5672 5670 5668 5666 5665 5663 5661 5659 5657 5655 5653 5651 5649 5647 5645
5696 5696 5696 5694 5693 5692 5691 5689 5688 5685 5681 5679 5676 5674 5672 5672 5671 5670 5668 5666 5665 5669 5667 5666 5667 5665 5664 5662 5660 5658 5656 5654 5652 5650 5648 5646 5644 5642
5692 5692 5692 5692 5690 5688 5687 5686 5684 5683 5681 5678 5674 5672 5670 5669 5667 5665 5663 5661 5660 5663 5662 5660 5662 5660 5659 5659 5657 5656 5654 5651 5649 5646 5644 5642 5640 5639
5689 5689 5687 5686 5686 5684 5683 5682 5680 5678 5677 5675 5673 5671 5669 5666 5664 5661 5659 5659 5660 5660 5658 5653 5655 5654 5655 5653 5652 5651 5649 5647 5645 5643 5641 5639 5637 5635
5687 5686 5684 5683 5681 5680 5679 5676 5674 5673 5673 5671 5670 5667 5665 5663 5660 5656 5654 5651 5649 5651 5652 5648 5648 5648 5648 5648 5647 5645 5644 5642 5641 5639 5637 5636 5633 5631
5682 5682 5680 5678 5676 5675 5673 5671 5668 5667 5667 5666 5663 5662 5661 5659 5656 5652 5649 5645 5643 5642 5645 5642 5641 5640 5639 5642 5641 5639 5638 5637 5636 5634 5632 5631 5629 5626
5678 5677 5676 5673 5671 5669 5667 5666 5663 5661 5660 5659 5658 5656 5655 5653 5651 5648 5646 5643 5639 5637 5639 5637 5634 5633 5632 5632 5633 5633 5633 5632 5630 5629 5627 5626 5625 5622
5672 5671 5669 5667 5665 5664 5662 5660 5658 5656 5655 5653 5651 5649 5648 5646 5644 5643 5641 5639 5637 5635 5634 5632 5629 5627 5625 5623 5624 5627 5627 5627 5626 5624 5623 5622 5620 5617
5665 5664 5662 5660 5659 5658 5656 5655 5652 5651 5649 5646 5644 5642 5642 5640 5639 5636 5634 5633 5632 5630 5629 5627 5625 5622 5620 5618 5618 5619 5619 5620 5620 5619 5618 5616 5614 5612
5658 5657 5656 5655 5653 5652 5652 5650 5648 5646 5644 5641 5639 5638 5636 5633 5631 5629 5626 5625 5623 5622 5623 5621 5619 5617 5615 5615 5613 5613 5613 5613 5614 5614 5612 5610 5609 5607
5651 5651 5650 5649 5648 5648 5648 5647 5644 5642 5639 5637 5634 5631 5629 5626 5624 5623 5621 5619 5616 5614 5614 5614 5614 5613 5611 5609 5607 5607 5607 5608 5608 5608 5605 5603 5602 5601
5644 5645 5645 5645 5645 5644 5643 5641 5639 5636 5634 5631 5628 5626 5623 5621 5618 5617 5615 5612 5610 5609 5608 5608 5607 5605 5604 5604 5603 5601 5601 5601 5602 5602 5600 5597 5595 5595
5639 5640 5640 5640 5639 5638 5637 5635 5632 5630 5628 5625 5623 5620 5618 5615 5613 5610 5608 5606 5604 5603 5602 5601 5600 5597 5594 5594 5596 5597 5596 5596 5595 5594 5594 5592 5590 5589
5635 5635 5635 5634 5633 5632 5630 5628 5625 5623 5620 5618 5616 5614 5611 5609 5606 5604 5603 5600 5599 5597 5596 5595 5594 5593 5590 5589 5590 5591 5591 5590 5589 5587 5586 5585 5583 5581
5630 5629 5629 5628 5627 5625 5623 5621 5618 5615 5613 5611 5609 5606 5605 5602 5600 5599 5597 5595 5593 5592 5590 5590 5591 5591 5590 5588 5586 5585 5585 5584 5583 5582 5580 5578 5576 5574
5624 5622 5621 5620 5618 5617 5615 5613 5611 5608 5605 5603 5601 5599 5598 5596 5595 5593 5592 5590 5589 5588 5587 5586 5586 5586 5584 5582 5581 5580 5579 5578 5577 5576 5575 5574 5571 5569
5616 5614 5613 5611 5610 5608 5606 5605 5603 5600 5598 5596 5594 5592 5591 5590 5589 5588 5587 5586 5585 5584 5582 5580 5580 5578 5578 5577 5576 5575 5574 5573 5571 5570 5568 5568 5567 5565